This demonstration page uses our WeatherBlox Daily Observations layout. Learn more.

Left ArrowRight Arrow

34.74481, -87.66753

Hourly Observations for December 1, 2020

Temp ( °F °C ) Dew Point ( °F °C ) Humidity (%) Winds ( mph kmh ) Pressure ( in mb ) Visibility ( mi km ) Precip ( " mm )
12:53 am 00:53 Clear 31 -0.6 22 -5.6 69 69 WNW 9 15 30.11 1020 10 16 0.00 0.00
1:53 am 01:53 Clear 30 -1.1 22 -5.6 72 72 WNW 6 9 30.13 1020 10 16 0.00 0.00
2:53 am 02:53 Clear 29 -1.7 21 -6.1 72 72 WNW 5 7 30.14 1021 10 16 0.00 0.00
3:53 am 03:53 Clear 27 -2.8 22 -5.6 81 81 WSW 5 7 30.15 1021 10 16 0.00 0.00
4:53 am 04:53 Clear 27 -2.8 21 -6.1 78 78 W 3 6 30.16 1021 10 16 0.00 0.00
5:53 am 05:53 Clear 27 -2.8 21 -6.1 78 78 W 6 9 30.18 1022 10 16 0.00 0.00
6:53 am 06:53 Sunny 26 -3.3 20 -6.7 78 78 W 5 7 30.20 1023 10 16 0.00 0.00
7:53 am 07:53 Sunny 30 -1.1 23 -5 75 75 W 6 9 30.22 1024 10 16 0.00 0.00
8:53 am 08:53 Sunny 34 1.1 24 -4.4 67 67 WNW 8 13 30.24 1024 10 16 0.00 0.00
9:53 am 09:53 Sunny 37 2.8 22 -5.6 54 54 NW 8 13 30.25 1024 10 16 0.00 0.00
10:53 am 10:53 Sunny 39 3.9 21 -6.1 48 48 W 14 22 30.24 1024 10 16 0.00 0.00
11:53 am 11:53 Sunny 40 4.4 20 -6.7 45 45 W 8 13 30.22 1023 10 16 0.00 0.00
12:53 pm 12:53 Sunny 43 6.1 19 -7.2 38 38 NW 7 11 30.19 1022 10 16 0.00 0.00
1:53 pm 13:53 Sunny 44 6.7 18 -7.8 35 35 W 10 17 30.18 1022 10 16 0.00 0.00
2:53 pm 14:53 Sunny 45 7.2 17 -8.3 33 33 W 9 15 30.18 1022 10 16 0.00 0.00
3:53 pm 15:53 Sunny 45 7.2 17 -8.3 33 33 WNW 7 11 30.19 1022 10 16 0.00 0.00
4:53 pm 16:53 Clear 41 5 19 -7.2 41 41 NNW 3 6 30.20 1023 10 16 0.00 0.00
5:53 pm 17:53 Clear 36 2.2 21 -6.1 55 55 Calm 30.22 1023 10 16 0.00 0.00
6:53 pm 18:53 Clear 33 0.6 25 -3.9 72 72 Calm 30.23 1024 10 16 0.00 0.00
7:53 pm 19:53 Clear 32 0 24 -4.4 73 73 SSW 3 6 30.25 1024 10 16 0.00 0.00
8:53 pm 20:53 Clear 30 -1.1 23 -5 75 75 Calm 30.26 1025 10 16 0.00 0.00
9:53 pm 21:53 Clear 29 -1.7 24 -4.4 82 82 Calm 30.27 1025 10 16 0.00 0.00
10:53 pm 22:53 Clear 29 -1.7 22 -5.6 75 75 Calm 30.27 1025 10 16 0.00 0.00
11:53 pm 23:53 Clear 28 -2.2 22 -5.6 78 78 Calm 30.28 1025 10 16 0.00 0.00

Powered by AerisWeather